This is the latest recevied weather packets stored in our database for station/object N8WJW. If no packets are shown the sender has not sent any weather packets the latest 10 day(s).
| Time | Temp. | Humidity | Pressure | Rain* | Wind** | Luminosity | Snow |
|---|---|---|---|---|---|---|---|
| 1777961113 | 18.89° C | 66% | 1005.1 hPa | 0 mm | - | 0 W/m² | - |
| 1777960809 | 18.33° C | 67% | 1004.8 hPa | 0 mm | - | 0 W/m² | - |
| 1777960504 | 18.33° C | 68% | 1004.8 hPa | 0 mm | - | 0 W/m² | - |
| 1777960201 | 18.89° C | 67% | 1005.2 hPa | 0 mm | - | 0 W/m² | - |
| 1777959898 | 18.89° C | 67% | 1005.2 hPa | 0 mm | - | 0 W/m² | - |
| 1777959596 | 18.33° C | 68% | 1005.3 hPa | 0 mm | - | 0 W/m² | - |
| 1777959293 | 18.33° C | 68% | 1005.4 hPa | 0 mm | - | 0 W/m² | - |
| 1777958990 | 18.33° C | 69% | 1005.4 hPa | 0 mm | - | 0 W/m² | - |
| 1777958687 | 17.78° C | 69% | 1005.5 hPa | 0 mm | - | 0 W/m² | - |
| 1777958384 | 17.78° C | 70% | 1005.5 hPa | 0 mm | - | 0 W/m² | - |
| 1777958081 | 17.78° C | 71% | 1005.8 hPa | 0 mm | - | 0 W/m² | - |
| 1777957779 | 17.78° C | 70% | 1005.6 hPa | 0 mm | - | 0 W/m² | - |
| 1777957477 | 17.78° C | 71% | 1005.7 hPa | 0 mm | - | 0 W/m² | - |
| 1777957174 | 17.78° C | 72% | 1005.8 hPa | 0 mm | - | 0 W/m² | - |
| 1777956871 | 17.22° C | 74% | 1005.6 hPa | 0 mm | - | 0 W/m² | - |
| 1777956567 | 17.22° C | 73% | 1005.7 hPa | 0 mm | - | 0 W/m² | - |
| 1777956265 | 17.78° C | 72% | 1005.8 hPa | 0 mm | - | 0 W/m² | - |
| 1777955961 | 18.33° C | 68% | 1005.7 hPa | 0 mm | - | 0 W/m² | - |
| 1777955657 | 18.33° C | 66% | 1005.7 hPa | 0 mm | - | 0 W/m² | - |
| 1777955354 | 18.33° C | 67% | 1005.5 hPa | 0 mm | - | 0 W/m² | - |
| 1777955050 | 18.33° C | 66% | 1005.7 hPa | 0 mm | - | 0 W/m² | - |
| 1777954748 | 18.33° C | 66% | 1005.7 hPa | 0 mm | - | 0 W/m² | - |
| 1777954445 | 18.33° C | 66% | 1005.6 hPa | 0 mm | - | 0 W/m² | - |
| 1777954142 | 18.33° C | 66% | 1005.7 hPa | 0 mm | - | 0 W/m² | - |
| 1777953840 | 18.33° C | 67% | 1005.8 hPa | 0 mm | - | 0 W/m² | - |
* Rain latest hour (hover to see other rain measurements)
** Current wind speed in m/s (hover to see current wind gust speed)